Погода в Ченстохове

Польша     50°48′42″N   19°06′47″E
темп.,
°C
ветер,
м/с
пор.,
м/с
влажн.,
%
обл.,
%
осадки,
мм/ч
давл.,
гПа
погр.,
м
27 февраля, сб
сб2701:00+4зсз51087100 0.3 1029561
04:00+3зсз598896 0.0 1029547
07:00+3сз6118996 0.1 1030663
10:00+2сз6990100 0.0 1031602
13:00+3сз6984100 0.0 1033699
16:00+4сз6978100 0.0 1033811
19:00+4сз4979100 0.1 1035521
22:00+3сз4982100 0.1 1035372
28 февраля, вс
вс2801:00+1сз489565 0.1 1036231
04:000зсз389763 0.0 1035228
07:000зсз479779 0.0 1035300
10:00+2зсз478699 0.0 1035451
13:00+6з586773 0.0 1033694
16:00+7зсз59670 0.0 1032856
19:00+4зсз411854 0.0 1033380
22:00+3ссз389488 0.0 1033476
1 марта, пн
пн101:00+1ссз369675 0.0 1034214
04:00+1ссз259968 0.0 1034191
07:00+1ссз129683 0.0 1035162
10:00+2з2289100 0.0 1035264
13:00+7з236775 0.0 1035586
16:00+8сз22630 0.0 1034631
19:00+5з12770 0.0 103522
22:00+4юз23860 0.0 103540
2 марта, вт
вт201:00+2зюз23900 0.0 103542
04:00+2зюз34900 0.0 103479
07:00+1зюз23900 0.0 103455
10:00+7зюз35670 0.0 1034253
13:00+11зсз34500 0.0 1033584
16:00+11з35500 0.0 1032608
19:00+7з22670 0.0 103322
22:00+6зюз23730 0.0 103322
3 марта, ср
ср301:00+4юз22750 0.0 103322
04:00+3юз22820 0.0 103222
07:00+3юз23820 0.0 103226
10:00+8юз23580 0.0 1031198
13:00+12юз224430 0.0 1029444
16:00+12ююз234686 0.0 1027271
19:00+8ююз346393 0.0 102785
22:00+5юз46750 0.0 1026136